Location: Unspecified
(50.1700°N, 6.8600°E)
Time: 03:14:31
(UTC+00:00)

ERBS - Pass Details

Date: 24 January 2019
Orbit: 418 x 432 km, 57.0° (Epoch: 16 February)

Event Time Altitude Azimuth Distance (km) Brightness Sun altitude
Exits shadow 05:33:30 24° 339° (NNW) 930 3.7 -16.4°
Maximum altitude 05:34:03 25° 356° (N) 899 3.8 -16.3°
Drops below altitude 10° 05:36:54 10° 54° (NE) 1,505 5.7 -15.9°
Sets 05:39:14 0° 68° (ENE) 2,369 7.1 -15.5°
